AA2YS Weather Reports


Display with metric or nautical units.
time (UTC)temp
F
wind
direction
speed
MPH
gust
MPH
rain 1hr
in
rain 24hr
in
rain mn
in
humidity
%
barometer
mb
20260901051519 68 0.0 0.0 0.01 1.20 0.01 96 1014.8
20260901050520 68 0.0 0.0 0.00 1.19 0.00 96 1014.7
20260901045539 68 0.0 0.0 0.00 1.19 0.00 95 1014.7
20260901044519 69 0.0 0.0 0.00 1.19 0.00 95 1014.7
20260901043519 69 0.0 0.0 0.00 1.19 0.00 95 1014.7
20260901042559 69 0.0 0.0 0.00 1.19 0.00 96 1014.6
20260901041519 69 0.0 0.0 0.00 1.19 0.00 96 1014.6
20260901040519 69 0.0 0.0 0.00 1.19 0.00 96 1014.5
20260901035520 69 0.0 0.0 0.00 1.19 1.19 96 1014.7
20260901034540 69 0.0 0.0 0.00 1.19 1.19 95 1014.9
20260901033520 69 0.0 0.0 0.00 1.19 1.19 95 1015.1
20260901032540 69 0.0 0.0 0.00 1.19 1.19 95 1015.1
20260901031541 69 0.0 0.0 0.00 1.19 1.19 95 1015.3
20260901030520 69 0.0 0.0 0.00 1.19 1.19 95 1015.2
20260901025520 70 0.0 0.0 0.00 1.19 1.19 95 1015.3
20260901024520 70 0.0 0.0 0.00 1.19 1.19 96 1015.4
20260901023520 70 0.0 0.0 0.00 1.19 1.19 96 1015.6
20260901022521 70 0.0 0.0 0.00 1.19 1.19 96 1015.6
20260901021520 70 0.0 0.0 0.00 1.19 1.19 96 1015.6
20260901020520 70 0.0 0.0 0.00 1.19 1.19 96 1015.6
20260901015520 70 0.0 0.0 0.00 1.19 1.19 96 1015.6
20260901014520 70 0.0 0.0 0.00 1.19 1.19 96 1015.6
20260901013520 70 0.0 0.0 0.00 1.19 1.19 96 1015.7
20260901012541 70 0.0 0.0 0.00 1.19 1.19 96 1015.7
20260901011522 70 0.0 0.0 0.01 1.19 1.19 96 1015.6
20260901010600 70 0.0 0.0 0.01 1.19 1.19 96 1015.3
20260901005520 70 0.0 0.0 0.01 1.19 1.19 95 1015.4
20260901004520 70 0.0 0.0 0.01 1.19 1.19 96 1015.4
20260901003520 70 0.0 0.0 0.01 1.19 1.19 95 1015.4
20260901002520 70 0.0 0.0 0.01 1.19 1.19 95 1015.2
20260901001540 70 0.0 0.0 0.00 1.18 1.18 96 1015.3
20260901000520 70 0.0 0.0 0.00 1.18 1.18 96 1015.3
20260831235520 70 0.0 0.0 0.00 1.18 1.18 96 1015.5
20260831234520 70 0.0 0.0 0.00 1.18 1.18 96 1015.4
20260831233520 70 0.0 0.0 0.00 1.18 1.18 96 1015.3
20260831232520 70 0.0 0.0 0.00 1.18 1.18 96 1015.4
20260831231522 70 0.0 0.0 0.00 1.18 1.18 96 1015.5
20260831230520 70 0.0 0.0 0.00 1.18 1.18 96 1015.5
20260831225521 70 0.0 0.0 0.00 1.18 1.18 96 1015.4
20260831224520 70 0.0 2.0 0.00 1.18 1.18 96 1015.7
20260831223520 70 0.0 0.0 0.00 1.18 1.18 96 1015.6
20260831222520 0 0.0 0.0 0.00 1.18 1.18
20260831221515 0 0.0 0.0 0.00 1.18 1.18
20260831220520 70 0.0 0.0 0.00 1.18 1.18 96 1015.7
20260831215520 70 0.0 0.0 0.00 1.18 1.18 96 1015.7
20260831214520 70 0.0 0.0 0.01 1.18 1.18 96 1015.7
20260831213520 70 0.0 0.0 0.02 1.18 1.18 96 1015.7
20260831212520 70 0.0 0.0 0.05 1.18 1.18 96 1015.7
20260831211520 70 0.0 0.0 0.08 1.18 1.18 96 1015.8
20260831210520 70 0.0 0.0 0.09 1.18 1.18 96 1015.8
20260831205540 70 0.0 0.0 0.10 1.18 1.18 96 1015.8
20260831204520 70 0.0 0.0 0.09 1.17 1.17 96 1015.8
20260831203520 70 0.0 0.0 0.11 1.16 1.16 96 1015.9
20260831202520 71 0.0 0.0 0.09 1.13 1.13 96 1016.0
20260831201520 71 0.0 0.0 0.10 1.10 1.10 96 1016.1
20260831200520 70 0.0 0.0 0.14 1.09 1.09 96 1016.1
20260831195520 70 0.0 0.0 0.21 1.08 1.08 95 1016.2
20260831194600 70 0.0 0.0 0.21 1.08 1.08 95 1016.3
20260831193520 71 0.0 0.0 0.18 1.05 1.05 95 1016.5
20260831192520 71 0.0 0.0 0.25 1.04 1.04 95 1016.6
20260831191520 71 0.0 0.0 0.31 1.00 1.00 95 1016.8
20260831190520 71 0.0 0.0 0.35 0.95 0.95 96 1016.8
20260831185520 71 0.0 0.0 0.28 0.87 0.87 96 1016.8
20260831184520 71 0.0 0.0 0.29 0.87 0.87 96 1016.8
20260831183520 71 0.0 0.0 0.35 0.87 0.87 96 1016.8
20260831182520 71 0.0 0.0 0.27 0.79 0.79 95 1016.8
20260831181520 71 0.0 0.0 0.17 0.69 0.69 95 1017.0
20260831180520 71 0.0 0.0 0.09 0.60 0.60 96 1017.0
20260831175520 71 0.0 0.0 0.11 0.59 0.59 96 1017.1
20260831174520 71 0.0 0.0 0.11 0.58 0.58 96 1017.1
20260831173520 71 0.0 0.0 0.05 0.52 0.52 96 1017.2
20260831172540 71 0.0 0.0 0.05 0.52 0.52 96 1017.2
20260831171520 71 0.0 0.0 0.06 0.52 0.52 96 1017.4
20260831170520 71 0.0 0.0 0.06 0.52 0.51 96 1017.6
20260831165520 71 0.0 0.0 0.03 0.49 0.48 96 1017.6
20260831164520 71 0.0 0.0 0.02 0.48 0.47 96 1017.6
20260831163539 70 0.0 0.0 0.04 0.48 0.47 96 1017.8
20260831162519 70 0.0 0.0 0.07 0.48 0.47 96 1017.9
20260831161519 70 0.0 2.0 0.08 0.48 0.46 96 1017.8
20260831160520 70 0.0 0.0 0.07 0.47 0.45 96 1017.9
20260831155519 70 0.0 0.0 0.09 0.47 0.45 96 1018.2
20260831154540 69 0.0 0.0 0.09 0.47 0.45 96 1018.1
20260831153520 69 0.0 0.0 0.08 0.45 0.43 96 1018.2
20260831152520 69 0.0 0.0 0.07 0.42 0.40 96 1018.3
20260831151520 69 0.0 0.0 0.09 0.40 0.38 96 1018.5
20260831150520 69 0.0 0.0 0.11 0.40 0.38 96 1018.2
20260831145520 69 0.0 0.0 0.10 0.38 0.36 96 1018.1
20260831144539 68 0.0 0.0 0.15 0.38 0.36 96 1018.1
20260831143520 68 0.0 0.0 0.23 0.37 0.35 95 1018.2
20260831142540 68 0.0 0.0 0.24 0.35 0.33 95 1018.2
20260831141519 68 0.0 0.0 0.21 0.31 0.29 95 1017.9
20260831140520 68 0.0 0.0 0.21 0.29 0.27 96 1017.8
20260831135520 68 0.0 0.0 0.25 0.28 0.26 95 1017.7
20260831134520 68 0.0 0.0 0.20 0.23 0.21 95 1017.8
20260831133540 67 0.0 0.0 0.12 0.14 0.12 95 1017.8
20260831132520 67 0.0 0.0 0.09 0.11 0.09 95 1018.1
20260831131540 67 0.0 0.0 0.08 0.10 0.08 95 1018.3
20260831130519 67 0.0 0.0 0.06 0.08 0.06 95 1018.1
20260831125519 67 0.0 0.0 0.01 0.03 0.01 95 1018.2
20260831124519 66 0.0 0.0 0.01 0.03 0.01 95 1018.2
20260831123519 66 0.0 0.0 0.00 0.02 0.00 95 1018.3
20260831122519 66 0.0 0.0 0.00 0.02 0.00 95 1018.1
20260831121519 65 0.0 0.0 0.00 0.02 0.00 95 1018.2
20260831120520 65 0.0 0.0 0.00 0.02 0.00 94 1018.3
20260831115519 65 0.0 0.0 0.00 0.02 0.00 94 1018.4
20260831114519 65 0.0 0.0 0.00 0.02 0.00 94 1018.4
20260831113519 65 0.0 0.0 0.00 0.02 0.00 94 1018.3
20260831112519 64 0.0 0.0 0.00 0.02 0.00 93 1018.4
20260831111519 64 0.0 0.0 0.00 0.02 0.00 93 1018.4
20260831110519 64 0.0 0.0 0.00 0.02 0.00 93 1018.3
20260831105539 64 0.0 0.0 0.00 0.02 0.00 93 1018.2
20260831104540 64 0.0 0.0 0.00 0.02 0.00 93 1018.4
20260831103539 64 0.0 0.0 0.00 0.02 0.00 93 1018.2
20260831102519 64 0.0 0.0 0.00 0.02 0.00 93 1018.1
20260831101519 64 0.0 0.0 0.00 0.02 0.00 93 1018.0
20260831100520 64 0.0 0.0 0.00 0.02 0.00 93 1018.2
20260831095539 64 0.0 0.0 0.00 0.02 0.00 93 1018.3
20260831094519 64 0.0 0.0 0.00 0.02 0.00 93 1018.4
20260831093539 64 0.0 0.0 0.00 0.02 0.00 93 1018.4
20260831092539 64 0.0 0.0 0.00 0.02 0.00 93 1018.3
20260831091519 64 0.0 0.0 0.00 0.02 0.00 93 1018.4
20260831090520 63 0.0 0.0 0.00 0.02 0.00 93 1018.4
20260831085519 63 0.0 0.0 0.00 0.02 0.00 92 1018.4
20260831084519 63 0.0 0.0 0.00 0.02 0.00 92 1018.5
20260831083540 63 0.0 0.0 0.00 0.02 0.00 92 1018.5
20260831082519 63 0.0 0.0 0.00 0.02 0.00 92 1018.6
20260831081519 63 0.0 0.0 0.00 0.02 0.00 92 1018.7
20260831080519 63 0.0 0.0 0.00 0.02 0.00 92 1018.6
20260831075520 63 0.0 0.0 0.00 0.02 0.00 92 1018.5
20260831074540 63 0.0 0.0 0.00 0.02 0.00 92 1018.6
20260831073520 63 0.0 0.0 0.00 0.02 0.00 92 1018.5
20260831072519 63 0.0 0.0 0.00 0.02 0.00 92 1018.5
20260831071539 63 0.0 0.0 0.00 0.02 0.00 92 1018.6
20260831070540 63 0.0 0.0 0.00 0.02 0.00 92 1018.6
20260831065519 63 0.0 0.0 0.00 0.02 0.00 92 1018.6
20260831064519 63 0.0 0.0 0.00 0.02 0.00 91 1018.6
20260831063519 63 0.0 0.0 0.00 0.02 0.00 92 1018.8
20260831062539 63 0.0 0.0 0.00 0.02 0.00 91 1018.7
20260831061519 63 0.0 0.0 0.00 0.02 0.00 91 1018.6
20260831060559 63 0.0 0.0 0.00 0.02 0.00 91 1018.7
20260831055519 63 0.0 0.0 0.00 0.02 0.00 91 1018.8
20260831054519 63 0.0 0.0 0.00 0.02 0.00 91 1018.7
20260831053519 62 0.0 0.0 0.00 0.02 0.00 91 1018.9
20260831052519 62 0.0 0.0 0.00 0.02 0.00 90 1018.9